#timestamp,LO_Frequency,Hit,StdDev 
1512540015.3,286047002.8,N
1512540035.1,286047000.1,N
1512540055.9,286047001.3,N
1512540075.7,286047002.2,N
1512540095.5,286046999.8,N
1512540115.4,286046998.2,N
1512540135.2,286046998.1,N
1512540155.1,286046999.7,N
1512540156.0,286046999.7,N
1512540175.8,286047000.0,N
1512540195.7,286047000.6,N
1512540215.5,286046999.7,N
1512540235.3,286047001.9,N
1512540255.2,286047002.8,N
1512540275.9,286047000.1,N
1512540295.7,286047000.2,N
1512540315.6,286047000.3,N
1512540335.4,286047001.4,N
1512540355.3,286047003.4,N
1512540375.1,286047001.8,N
1512540376.0,286047001.8,N
1512540395.8,286047003.2,N
1512540415.7,286047004.0,N
1512540435.5,286047001.8,N
1512540455.3,286047001.8,N
1512540475.2,286047002.7,N
1512540495.0,286047002.4,N
1512540495.9,286047002.4,N
1512540515.8,286047001.3,N
1512540535.6,286047004.1,N
1512540555.4,286047005.6,Y
1512540575.3,286047004.0,P
1512540595.1,286047003.5,N
1512540615.9,286047002.8,N
1512540635.7,286047000.9,N
1512540655.5,286047002.8,N
1512540675.4,286047002.8,N
1512540695.2,286047000.1,N
1512540715.0,286047000.1,N
1512540715.9,286047000.1,N
1512540735.8,286047000.4,N
1512540755.6,286047002.7,N
1512540775.5,286047001.5,N
1512540795.3,286047001.8,N
1512540815.1,286047001.8,N
1512540835.9,286047002.6,N
1512540855.7,286047002.8,N
1512540875.5,286046999.8,N
1512540895.4,286047000.8,N
1512540915.2,286047000.6,N
1512540935.1,286047002.3,N
1512540936.0,286047002.3,N
1512540955.8,286047000.0,N
1512540975.6,286047000.3,N
1512540995.5,286047000.1,N
1512541015.3,286047000.9,N
1512541035.1,286047000.2,N
1512541055.9,286047002.4,N
1512541075.7,286047000.5,N
1512541095.6,286047000.1,N
1512541115.4,286047001.4,N
1512541135.2,286047002.8,N
1512541155.1,286047000.1,N
1512541156.0,286047000.1,N
1512541175.8,286046999.8,N
1512541195.6,286046999.7,N
1512541215.5,286047002.4,N
1512541235.3,286047001.9,N
1512541255.2,286047004.0,Y
1512541275.0,286047001.7,P
1512541275.9,286047001.7,P
1512541295.7,286047004.3,P
1512541315.6,286047002.5,N
1512541335.4,286047000.3,N
1512541355.3,286047002.5,N
1512541375.1,286047003.9,Y
1512541376.0,286047003.9,P
1512541395.8,286047001.0,N
1512541415.7,286047002.5,N
1512541435.5,286046999.7,N
1512541455.4,286047000.5,N
1512541475.2,286047001.1,N
1512541495.0,286046997.4,N
1512541495.9,286046997.4,N
1512541515.8,286046999.0,N
1512541535.6,286046998.4,N
1512541555.5,286046999.6,N
1512541575.3,286047000.7,N
1512541595.1,286046999.3,N
1512541615.9,286046999.1,N
1512541635.7,286046997.0,N
1512541655.6,286046996.6,N
1512541675.4,286046999.2,N
1512541695.2,286046998.8,N
1512541715.1,286046998.8,N
1512541716.0,286046998.8,N
1512541735.8,286046999.2,N
1512541755.7,286046998.3,N
1512541775.5,286047000.0,N
1512541795.3,286047000.6,N
1512541815.2,286047001.0,N
1512541835.9,286046999.9,N
1512541855.7,286047000.4,N
1512541875.6,286046998.7,N
1512541895.4,286047000.7,N
1512541915.3,286046999.6,N
1512541935.1,286046999.2,N
1512541936.0,286046999.2,N
1512541955.8,286046996.5,N
1512541975.7,286047000.5,N
1512541995.5,286046999.9,N
1512542015.3,286047000.1,N
1512542035.2,286047000.4,N
1512542055.0,286047002.2,N
1512542055.9,286047002.2,N
1512542075.8,286047002.6,N
1512542095.6,286047000.9,N
1512542115.4,286047000.0,N
1512542135.3,286046999.2,N
1512542155.1,286047000.4,N
1512542175.9,286047002.1,N
1512542195.7,286046999.8,N
1512542215.5,286046999.2,N
1512542235.4,286047001.2,N
1512542255.2,286046998.4,N
1512542275.1,286047002.8,N
1512542276.0,286047002.8,N
1512542295.8,286047000.1,N
1512542315.6,286047000.6,N
1512542335.5,286046999.9,N
1512542355.3,286047000.4,N
1512542375.1,286046998.6,N
1512542395.9,286047000.7,N
1512542415.7,286047001.2,N
1512542435.6,286047002.5,N
1512542455.4,286047000.3,N
1512542475.2,286047001.0,N
1512542495.1,286046998.2,N
1512542496.0,286046998.2,N
1512542515.8,286047000.5,N
1512542535.7,286046999.0,N
1512542555.5,286046998.6,N
1512542575.3,286046999.4,N
1512542595.2,286046998.4,N
1512542615.0,286046999.4,N
1512542615.9,286046999.4,N
1512542635.7,286046996.5,N
1512542655.6,286046997.7,N
1512542675.4,286046999.6,N
1512542695.3,286047001.1,N
1512542715.1,286046999.5,N
1512542716.0,286046999.5,N
1512542735.8,286046998.6,N
1512542755.7,286047001.2,N
1512542775.5,286046999.0,N
1512542795.3,286047000.8,N
1512542815.2,286047001.1,N
1512542835.0,286047000.5,N
1512542835.9,286047000.5,N
1512542855.8,286047002.8,N
1512542875.6,286047000.1,N
1512542895.4,286047000.4,N
1512542915.5,286046998.7,N
1512542935.4,286046998.7,N
1512542955.2,286046998.9,N
1512542975.0,286046998.4,N
1512542976.0,286046998.4,N
1512542995.8,286046998.4,N
1512543015.6,286047000.4,N
1512543035.5,286046999.4,N
1512543055.3,286046996.9,N
1512543075.1,286046998.1,N
1512543095.9,286047000.0,N
1512543115.7,286047002.4,N
1512543135.6,286047000.4,N
1512543155.4,286047004.4,Y
1512543175.2,286047003.5,P
1512543195.1,286047003.5,N
1512543196.0,286047003.5,N
1512543215.8,286047003.8,N
1512543235.7,286047005.5,Y
1512543255.5,286047001.5,P
1512543275.3,286047003.3,P
1512543295.2,286047002.8,P
1512543315.0,286047000.7,N
1512543315.9,286047000.7,N
1512543335.7,286047001.1,N
1512543355.6,286046998.4,N
1512543375.4,286046997.2,N
1512543395.3,286047000.5,N
1512543415.1,286047000.5,N
1512543435.8,286047000.3,N
1512543455.7,286046998.7,N
1512543475.5,286046996.7,N
1512543495.4,286046997.4,N
1512543515.2,286047000.4,N
1512543535.0,286047001.3,N
1512543535.9,286047001.3,N
1512543585.8,286047001.0,E
1512543595.7,286046998.5,N
